Dewpoint
60 60 60 60 60 59 59 60 59 59 59 60 61 61 62 62 61 62 61 61 61 62 62 62 62 63 63 63 63 63 60 48 40 39 34 37 54 59 59 62 63 63 62 53 40 29 28 30 30 27 35 35 39 38 45 44 41 43 37 30 27 31 21 22 20 21 23 21 19 20 20 18 18 20 21 21 24 25 25 24 24 24 25 26 31 32 30 31
59 60 60 60 59 60 60 59 59 59 60 61 61 62 62 61 60 61 60 60 61 62 62 62 63 63 63 63 63 62 57 54 41 40 37 51 58 60 61 62 63 63 58 39 38 32 29 26 27 27 30 31 45 37 40 42 41 35 33 25 25 27 24 20 19 18 19 20 21 21 20 19 19 20 21 20 19 22 22 23 22 21 21 22 23 25 24 25
59 59 59 59 59 59 59 59 59 60 60 61 61 61 61 59 59 60 60 60 61 61 62 62 63 63 63 62 62 61 56 53 45 35 39 59 61 61 61 63 64 63 51 44 45 38 30 27 27 27 32 29 36 37 39 40 36 36 27 24 28 28 22 20 20 22 22 21 21 20 21 19 19 20 22 20 19 20 21 21 21 20 20 21 24 24 26 24
58 59 59 59 59 59 59 58 59 60 60 61 61 61 59 59 59 59 60 60 61 61 62 63 63 63 62 61 61 58 55 46 36 38 41 60 64 62 64 64 61 59 52 45 42 38 31 28 27 30 35 33 35 40 33 38 32 34 26 26 28 24 22 22 21 22 22 22 22 21 23 17 18 22 21 20 20 20 19 21 20 19 20 22 25 29 26 24
58 59 59 59 58 58 58 58 60 60 60 61 61 61 59 59 59 59 59 60 61 62 62 63 62 62 59 59 61 58 45 33 35 43 47 59 59 63 62 61 61 57 52 45 43 39 33 30 28 33 34 27 32 32 27 32 33 31 21 29 26 22 21 24 23 25 22 22 20 21 18 19 21 21 21 22 20 19 19 19 19 19 19 20 22 27 28 24
58 58 59 58 58 58 58 58 59 59 59 60 60 61 59 59 59 59 59 60 61 62 62 62 63 62 59 58 56 57 46 30 41 43 58 57 59 59 59 60 59 54 53 39 31 32 31 32 25 28 23 19 19 22 24 27 29 16 20 22 23 21 19 22 22 26 21 21 20 19 22 21 20 20 22 21 20 20 19 18 18 18 20 20 22 25 25 25
57 58 58 58 58 57 57 58 58 59 59 60 60 60 59 59 59 58 58 59 61 62 62 63 61 61 58 60 57 53 40 39 42 44 57 57 58 57 58 55 51 45 34 32 31 30 31 29 29 32 28 27 26 24 27 32 33 20 19 22 22 22 21 22 21 22 22 20 19 18 21 20 20 20 22 18 19 18 17 16 17 17 18 19 19 21 23 25
57 58 57 57 57 57 57 58 58 59 59 60 61 61 59 59 58 58 58 59 61 62 62 62 61 60 61 58 55 48 43 41 37 46 54 56 47 45 53 46 43 44 32 32 31 30 33 32 31 31 27 25 27 23 27 24 26 27 27 25 22 22 22 23 20 20 21 21 16 20 19 18 20 21 20 18 18 17 16 16 16 16 16 18 18 20 23 23
57 57 57 57 57 57 57 58 58 59 59 60 60 60 60 59 58 58 58 59 61 61 62 62 61 58 58 54 48 35 37 46 38 42 48 46 42 40 44 39 43 39 36 35 34 38 35 32 36 33 23 27 30 26 24 18 17 30 24 24 24 23 22 21 20 21 20 18 18 18 18 21 21 21 19 17 17 17 17 16 16 16 16 17 18 18 22 21
57 57 57 57 56 57 57 57 57 57 59 59 60 60 61 58 58 58 58 59 60 61 62 61 60 59 53 48 44 34 40 42 44 44 43 46 41 39 42 46 45 39 38 40 36 34 34 36 38 40 38 34 33 27 26 24 18 25 26 24 21 20 22 23 19 20 19 16 19 18 19 20 22 21 19 18 17 18 16 16 15 16 16 17 19 24 22 20
57 57 58 57 57 57 56 56 57 58 58 59 59 59 58 57 58 58 58 59 60 61 62 61 59 57 48 50 38 32 44 45 40 40 43 47 43 39 42 45 47 43 39 42 42 40 40 41 43 41 40 29 24 21 22 23 26 24 21 19 18 19 21 20 20 19 18 18 20 18 18 21 22 25 19 16 17 17 15 14 15 17 16 17 19 18 24 19
57 57 57 57 57 57 57 56 57 57 58 59 59 59 57 57 57 57 58 59 61 62 62 60 58 54 47 36 36 38 42 42 38 40 45 46 43 45 45 45 46 45 39 39 46 46 43 42 43 33 22 32 25 22 23 24 23 21 20 16 18 20 19 20 18 19 19 18 21 21 17 18 20 20 19 16 17 16 15 14 16 15 16 17 16 18 17 18
57 57 57 57 57 57 56 56 57 57 58 58 59 58 57 57 57 57 58 59 60 61 61 60 58 57 47 34 33 46 44 36 37 43 44 42 45 44 45 47 47 46 44 41 43 45 45 41 41 33 39 28 24 19 25 24 20 21 21 18 18 18 18 19 20 20 18 18 24 12 11 12 18 20 17 17 16 16 15 14 15 16 15 15 17 17 19 20
57 57 57 57 57 56 56 56 55 57 57 58 59 59 58 57 57 57 58 59 60 62 61 61 55 56 41 30 42 48 42 44 40 46 44 44 43 47 48 49 48 45 47 44 43 43 44 40 39 36 40 27 22 33 22 23 21 17 20 19 20 18 19 21 18 19 17 25 24 13 14 10 17 18 17 17 16 15 14 14 14 18 17 16 19 19 18 20
57 57 56 57 57 56 56 56 56 56 57 57 58 59 58 56 57 58 59 59 60 61 60 60 56 42 34 32 48 49 60 42 44 45 46 38 40 42 44 41 44 43 38 42 44 43 38 42 37 31 28 30 29 21 21 20 21 20 17 20 28 18 24 19 20 18 17 20 23 15 16 12 18 18 17 17 16 14 13 13 14 16 16 14 14 13 15 18
57 57 56 57 56 56 56 55 56 56 57 56 58 57 56 56 57 58 59 58 60 61 57 56 50 38 31 29 39 59 48 43 41 47 46 44 42 33 38 42 44 45 38 35 38 38 37 41 30 30 28 19 20 20 21 22 25 25 17 23 21 21 21 19 18 20 19 19 20 14 12 12 18 19 18 17 15 14 13 13 14 13 13 11 12 13 16 17
57 57 56 56 56 56 55 55 55 56 57 56 56 55 56 56 58 59 58 59 56 58 55 41 42 38 30 40 41 37 40 44 48 46 45 44 43 41 40 37 37 38 43 37 40 40 35 30 33 26 27 17 20 24 18 23 23 26 25 17 24 15 14 11 15 18 25 19 16 16 11 11 15 19 17 16 14 13 12 13 13 13 12 12 15 15 15 17
56 57 57 56 56 55 55 55 56 56 57 55 56 56 55 58 58 59 52 55 54 55 52 51 42 32 29 38 34 33 44 43 46 43 44 46 42 42 37 29 33 32 38 32 37 30 36 26 26 23 29 23 11 20 17 11 18 23 22 19 15 17 12 11 11 7 21 18 17 16 14 13 16 17 15 15 13 12 12 13 13 12 12 15 15 15 14 16
56 56 57 57 56 55 54 55 56 56 57 57 58 57 58 56 54 46 35 36 32 26 29 34 27 24 18 35 38 43 43 46 46 41 40 35 41 39 39 37 36 31 31 29 26 30 31 30 34 29 26 15 11 14 10 16 25 17 20 19 19 17 13 9 10 15 20 17 16 16 15 11 17 16 15 14 13 12 12 13 12 11 12 14 15 15 17 17
57 56 57 57 56 55 54 54 56 56 57 54 50 49 33 29 36 37 36 35 28 30 27 32 35 35 40 40 43 46 48 42 31 41 43 44 38 37 30 33 38 37 30 29 32 32 32 24 23 23 28 13 12 16 20 20 16 16 20 20 13 15 14 15 15 15 19 16 15 16 14 12 12 17 15 14 13 14 12 12 12 11 13 15 16 17 14 14
57 56 56 56 56 54 54 54 55 56 57 53 48 27 13 25 25 20 34 34 32 41 36 38 40 37 36 41 44 37 28 32 35 37 41 40 40 30 20 25 28 30 30 27 31 28 32 25 26 31 20 11 10 13 18 18 17 17 19 20 17 23 16 16 14 19 18 17 17 15 15 14 13 14 16 14 13 12 12 12 11 11 13 16 14 14 13 12
56 56 56 56 55 54 54 54 55 57 57 49 44 37 38 40 38 38 33 23 33 44 44 42 40 38 39 39 40 38 41 32 35 37 42 38 30 23 22 26 25 27 29 31 31 26 24 20 24 27 16 17 18 19 18 17 20 21 17 18 18 17 20 18 18 18 17 18 14 14 12 13 12 12 15 13 12 12 12 12 10 10 12 14 14 14 15 14
56 56 56 56 55 53 53 54 55 56 48 45 43 46 46 48 48 48 44 40 38 44 43 43 41 39 37 36 41 37 33 34 26 37 33 38 28 24 25 19 26 28 31 18 25 23 24 28 28 19 23 18 14 19 19 20 23 19 19 18 17 22 21 18 19 17 19 17 19 17 15 14 13 12 14 13 13 12 16 14 16 13 12 12 12 13 11 11
56 56 55 55 54 53 54 54 55 50 44 46 46 46 48 47 48 48 45 36 27 34 42 44 40 41 39 34 39 32 28 27 22 26 35 33 20 30 22 23 23 24 24 19 21 20 21 22 23 24 27 18 19 26 24 20 19 24 23 21 21 22 22 21 17 21 20 20 23 15 14 12 15 15 15 13 16 13 14 16 15 18 17 17 20 17 14 10
56 56 56 55 54 53 54 54 46 44 46 47 44 46 46 47 47 47 40 32 32 37 46 44 47 46 39 45 45 32 26 28 34 29 35 31 23 19 19 22 21 21 25 21 16 20 19 20 29 19 26 28 28 26 26 26 21 22 27 24 23 24 22 24 26 20 17 16 19 18 7 13 15 15 14 13 11 10 12 10 10 12 13 15 13 11 17 20
56 55 55 54 54 53 54 49 43 44 45 43 47 46 42 45 45 46 35 26 20 32 38 34 45 38 42 31 42 39 28 25 30 34 40 34 35 21 24 23 22 27 18 19 18 20 17 25 27 26 29 30 29 29 29 25 20 19 21 29 25 24 23 23 23 18 15 11 16 17 7 6 16 16 14 13 11 10 12 10 10 10 11 14 11 11 11 8
56 55 55 54 53 53 50 44 46 48 41 45 43 46 46 43 46 45 33 27 20 32 36 42 37 36 43 38 36 32 24 31 33 31 31 36 24 35 24 24 23 19 16 19 29 27 16 22 25 28 27 24 23 20 24 26 23 21 26 26 22 20 19 21 21 19 15 19 23 21 18 10 8 13 15 12 11 10 11 10 10 10 10 10 10 11 6 10
56 55 54 53 52 53 46 48 47 42 35 48 48 44 45 47 47 46 30 10 7 36 35 35 40 44 41 34 37 27 27 27 29 23 24 33 30 22 23 22 24 26 17 26 21 29 18 25 24 25 25 23 21 21 26 29 22 22 24 24 18 21 21 22 20 17 19 16 14 16 20 13 13 13 15 13 11 10 10 10 9 8 7 7 7 9 6 7
56 55 54 53 52 53 49 48 45 45 48 44 45 46 47 46 46 33 22 -0 22 36 37 34 41 40 37 34 30 30 28 27 25 26 34 27 33 18 18 20 17 16 16 22 21 24 22 22 28 27 24 20 26 27 28 26 20 25 25 26 24 24 23 21 17 17 17 13 13 14 18 10 9 16 15 15 13 12 10 9 7 7 5 5 6 7 6 6
56 55 53 51 51 49 46 47 46 47 46 44 45 46 46 45 38 31 16 9 33 26 29 35 36 35 34 29 28 27 25 24 24 21 25 20 25 28 20 18 16 17 21 23 21 24 24 29 28 19 21 24 24 23 28 27 25 27 25 22 24 23 23 23 20 17 14 11 15 16 17 9 9 15 16 15 16 15 12 5 6 6 5 6 7 4 9 10
55 54 52 50 46 48 45 41 45 46 45 46 46 46 44 36 25 20 2 14 21 32 32 32 31 35 29 28 27 24 27 25 25 24 24 23 20 19 20 22 28 26 21 23 21 25 24 27 22 24 31 27 25 23 28 28 27 21 20 20 17 18 17 14 15 20 11 12 14 13 14 13 6 9 18 16 7 17 9 4 4 1 3 4 6 7 7 11
55 53 51 48 47 48 46 44 46 45 45 45 46 41 30 22 28 16 16 25 15 27 28 28 33 32 33 33 31 31 26 30 29 25 25 19 20 20 16 23 23 25 24 20 24 24 22 23 27 28 31 27 25 20 23 27 27 23 19 16 12 13 11 9 11 6 11 10 11 3 13 6 5 6 13 19 16 10 8 4 3 1 4 6 8 9 14 15
54 52 51 50 50 48 48 47 47 46 46 46 41 34 26 20 11 24 19 26 15 29 28 36 32 34 34 30 29 33 30 28 30 26 27 25 23 25 26 23 26 26 21 23 21 22 25 26 26 26 25 29 25 19 17 20 23 21 17 15 9 8 7 14 13 9 8 13 13 7 8 1 6 4 6 11 4 4 3 3 3 4 5 7 7 10 13 16
53 51 48 50 49 49 49 47 47 47 46 45 33 27 27 21 19 35 21 25 23 35 35 34 32 32 30 27 29 30 25 30 29 26 26 25 23 24 25 27 27 25 25 20 20 19 14 20 24 24 23 27 25 22 22 22 23 21 22 17 17 14 10 15 13 13 17 15 13 14 3 8 0 7 4 3 1 3 2 3 5 6 7 8 8 12 12 11
53 51 49 50 47 48 48 48 47 46 45 35 22 26 23 22 23 21 25 26 30 31 31 33 32 29 29 30 29 30 27 26 28 24 23 24 23 22 24 25 28 26 25 21 24 15 18 21 25 26 25 28 26 28 26 20 19 20 17 17 9 11 19 13 13 10 10 9 8 5 8 10 3 8 9 5 3 2 5 4 8 7 8 10 10 11 11 12
51 49 50 50 49 47 48 49 46 46 43 20 12 16 22 24 21 24 22 30 32 30 32 31 30 27 26 27 27 29 30 26 30 25 24 23 24 23 25 26 26 25 22 22 22 19 20 19 25 23 24 25 24 21 22 25 16 16 13 9 17 22 12 11 14 17 17 10 7 8 5 9 8 1 1 4 1 1 2 2 2 5 8 9 10 11 11 11
49 52 49 50 48 48 49 48 48 46 37 14 15 21 21 22 29 32 36 29 31 33 27 24 26 24 25 25 26 28 28 26 26 23 22 24 22 25 24 24 28 25 24 25 22 23 20 22 24 22 22 21 21 20 21 21 23 13 10 16 21 22 22 15 10 12 6 6 10 10 8 8 6 8 2 1 1 -0 1 -1 0 5 8 7 11 12 10 11
50 50 50 49 49 49 49 48 47 44 33 19 15 29 26 23 27 25 36 32 30 30 26 23 25 25 24 23 22 28 27 25 26 23 23 24 20 27 25 24 27 26 22 27 21 24 23 20 22 24 23 23 22 20 18 21 22 13 20 25 13 13 12 0 11 6 8 9 11 13 5 8 6 8 -0 0 -0 -1 -1 -1 2 4 5 8 11 10 11 13
50 48 46 48 50 49 49 49 47 40 30 20 20 28 29 25 27 29 34 33 34 30 26 27 24 26 26 23 25 27 26 23 24 23 20 23 21 26 25 26 25 26 26 25 22 21 22 20 20 23 20 19 18 20 16 15 18 22 21 12 20 10 16 8 11 14 12 11 12 12 14 13 11 9 2 -0 -1 0 -2 -0 1 4 7 9 11 13 14 15
47 45 43 48 48 49 49 49 47 38 28 30 29 29 31 27 25 28 31 32 32 28 28 27 28 24 27 26 27 23 26 25 24 24 23 25 23 27 24 28 25 25 25 26 23 26 19 22 20 18 20 19 14 14 17 16 13 6 8 4 9 10 12 13 3 10 8 10 10 10 8 12 12 7 5 2 -1 0 -1 3 7 7 7 9 11 13 14 14
48 44 44 49 50 50 49 45 38 30 29 32 33 32 32 31 32 26 27 30 33 31 29 28 28 25 25 25 25 27 26 25 25 24 24 26 23 22 27 26 27 24 24 23 21 22 17 17 20 14 14 15 20 21 20 20 19 13 11 11 9 10 7 6 10 7 9 7 8 5 9 15 16 4 5 4 -0 2 4 6 9 7 7 9 12 12 14 13
46 38 41 50 50 50 44 39 37 35 35 37 35 36 34 38 34 34 33 32 32 30 30 30 30 28 27 26 26 28 27 26 26 25 27 25 27 25 27 27 26 25 22 21 21 23 22 19 14 17 19 19 20 23 21 22 21 19 12 13 14 11 11 12 10 13 8 6 10 8 6 7 8 4 3 2 2 3 6 7 7 8 8 9 12 12 13 12
44 39 47 50 50 49 42 38 38 37 37 38 38 39 38 37 35 35 34 33 32 33 30 29 29 28 29 28 28 27 28 27 28 27 28 28 28 27 28 27 26 25 23 17 21 19 27 15 14 18 20 22 15 16 18 20 18 15 14 17 12 9 11 12 14 13 11 9 3 2 2 4 9 8 6 2 4 5 6 6 7 8 10 11 11 12 12 13
44 43 44 49 50 49 41 33 34 37 37 36 37 37 38 38 37 35 34 33 31 31 30 28 29 27 28 29 27 26 29 25 29 28 28 28 27 24 28 28 24 22 24 21 22 25 18 20 18 15 17 20 15 8 13 15 15 5 8 10 12 13 11 15 14 14 7 10 7 7 5 8 15 14 7 7 6 6 4 8 8 10 12 12 11 13 14 13
43 44 45 46 49 47 39 38 33 35 37 36 36 36 37 37 38 37 35 33 32 31 29 28 28 30 28 30 28 27 29 27 26 28 28 27 28 24 24 29 25 22 25 26 31 26 22 19 18 16 17 17 15 15 18 12 9 9 13 10 13 10 4 4 5 8 4 6 4 6 6 7 8 12 5 5 5 5 5 7 9 10 12 11 14 15 14 14
41 35 42 41 45 44 43 43 40 36 31 34 35 36 36 35 35 38 38 35 31 32 29 32 31 29 29 28 28 28 27 29 27 26 26 26 21 22 23 25 25 24 31 34 28 25 20 21 18 21 22 21 21 22 16 19 4 9 9 9 7 11 10 8 9 10 5 7 8 8 7 7 8 8 7 6 4 4 5 7 9 11 12 13 14 15 15 14
39 33 37 33 42 40 39 42 39 38 35 35 32 31 33 34 34 34 38 34 33 31 31 31 30 28 28 28 28 27 28 28 28 28 26 24 22 21 23 22 23 29 32 28 29 24 21 18 19 20 22 23 24 24 23 19 18 20 18 11 7 9 14 13 8 5 5 11 5 9 9 11 10 10 8 6 5 6 7 6 8 11 13 14 14 16 20 14
38 37 39 39 36 33 35 36 40 39 39 36 32 31 30 32 33 31 35 36 35 33 31 31 31 31 30 29 29 28 28 28 28 27 28 29 24 20 22 23 21 27 27 22 28 21 20 19 22 20 19 21 22 23 24 23 19 19 19 17 10 7 12 12 12 7 4 7 7 11 11 12 11 9 9 8 7 6 5 4 9 10 13 14 15 14 14 14
40 39 37 39 30 35 37 37 39 38 37 37 35 33 31 31 32 33 33 32 34 33 34 31 32 32 31 31 30 28 29 26 26 29 28 29 29 24 20 23 23 24 23 22 22 23 22 19 20 22 22 22 22 23 25 24 24 23 22 19 14 9 7 7 8 7 6 8 6 7 7 7 9 9 8 7 10 8 7 9 13 13 14 16 14 14 14 14
40 38 33 38 33 30 36 37 38 38 35 36 34 33 32 31 31 34 34 34 32 33 35 33 32 33 33 32 31 30 30 30 29 29 30 30 27 27 25 27 23 21 21 20 20 23 19 19 23 22 22 21 22 25 25 24 23 22 22 21 18 14 11 10 7 6 8 6 6 6 7 7 8 8 9 9 10 13 13 12 10 13 16 16 15 14 14 14
42 41 40 37 33 31 35 36 37 37 36 36 34 33 33 33 31 33 34 36 33 32 34 33 34 34 34 33 32 31 32 32 31 31 31 31 29 30 28 27 25 21 22 21 22 21 23 21 22 22 20 22 24 24 24 23 22 21 20 19 17 15 13 11 11 8 7 8 7 7 9 8 9 10 12 12 11 11 11 10 12 16 15 16 14 14 15 14
43 43 39 40 36 36 31 36 36 36 33 35 35 34 33 33 34 35 33 36 37 36 35 35 35 34 33 32 32 33 34 33 33 33 34 32 33 30 30 29 28 25 21 21 24 21 24 23 22 21 19 21 22 21 18 18 17 16 17 17 17 16 14 14 13 13 11 9 10 9 10 10 11 14 12 12 11 10 10 11 15 16 16 14 14 14 15 13